Miscellaneous Local Product
Issued by NWS North Platte, NE

Home | Current Version | Previous Version | Text Only | Print | Product List | Glossary On
Versions: 1 2 3 4 5 6 7 8 9 10 11 12 13 14 15 16 17 18 19 20 21 22 23 24 25 26 27 28 29 30 31 32 33 34 35 36 37 38 39 40 41 42 43 44 45 46 47 48 49 50
000
AXUS43 KLBF 251110
MISLBF


WESTERN AND NORTH CENTRAL NEBRASKA HOURLY WEATHER ROUNDUP
NATIONAL WEATHER SERVICE NORTH PLATTE NE
600 AM CDT MON MAY 25 2015

***STATIONS NOT REPORTING VARIABLES SUCH AS SKY/WEATHER OR
PRESSURE ARE PROVIDED BY THE NEBRASKA DEPARTMENT OF
ROADS...RAWS...AND APRS NETWORKS...AND ARE NOT UNDER
NATIONAL WEATHER SERVICE QUALITY CONTROL***

...OBSERVATIONS IN AND NEAR THE EASTERN PANHANDLE OF NEBRASKA...

CITY           SKY/WX    TMP DP  RH WIND       PRES   REMARKS
PINE RIDGE     LGT RAIN  54  52  93 N9        29.79S
CHADRON        LGT RAIN  54  52  93 N6        29.80S
ALLIANCE       LGT RAIN  50  49  96 NW7       29.80S
SIDNEY         CLOUDY    49  48  97 W5        29.82R
WHITECLAY        N/A     52  50  93 S13         N/A
BIG SPRINGS      N/A     52  51  95 CALM        N/A
$$

...OBSERVATIONS IN NORTH CENTRAL NEBRASKA...

CITY           SKY/WX    TMP DP  RH WIND       PRES   REMARKS
VALENTINE      CLOUDY    57  55  93 E7        29.76S
THEDFORD       CLOUDY    53  52  97 W7        29.76S
AINSWORTH      FOG       56  56 100 NE7       29.76R VSB 1/4
O`NEILL        FOG       57  57  99 NE5       29.75F VSB 1
ORD            FOG       58  57  97 SE6       29.72S VSB 1/4
BROKEN BOW     CLOUDY    52  50  93 W5        29.75R
VALENTINE NWR    N/A     55  55  99 NE6         N/A
SPRINGVIEW       N/A     56  55  96 CALM        N/A
HALSEY           N/A     50  50  99 SW3         N/A
ROSE             N/A     56  55  99 NE3         N/A
NEWPORT          N/A     57  57  99 NE5         N/A
SARGENT          N/A     54  53  98 SW6         N/A
COMSTOCK         N/A     55  55  99 W7          N/A
EWING            N/A     56  55  97 CALM        N/A
$$

...OBSERVATIONS IN SOUTHWEST NEBRASKA AND FAR NORTHEAST COLORADO...

CITY           SKY/WX    TMP DP  RH WIND       PRES   REMARKS
WRAY           CLOUDY   N/A N/A N/A W7        29.81S
IMPERIAL       CLOUDY    51  49  92 NW3       29.79S
OGALLALA       CLOUDY    52  51  97 SW3       29.79S
NORTH PLATTE   CLOUDY    53  51  93 SW3       29.78S
MCCOOK         CLOUDY    52  51  97 CALM      29.77F
LEXINGTON      CLOUDY    54  52  93 SW6       29.78R
GOTHENBURG       N/A     54  50  87 W3          N/A
CALLAWAY         N/A     53  52  97 W7          N/A
$$

...NORTH PLATTE AREA...

CITY           SKY/WX    TMP DP  RH WIND       PRES   REMARKS
AIRPORT        CLOUDY    53  51  93 SW3       29.78S
DOWNTOWN         N/A     53  51  92 CALM        N/A
$$

...SOME WEATHER OBSERVATIONS FROM AROUND THE REGION...

CITY           SKY/WX    TMP DP  RH WIND       PRES   REMARKS
DENVER         MOCLDY    43  39  86 SW6       29.88R
LARAMIE        CLOUDY    39  35  86 CALM      29.92S
CHEYENNE       CLOUDY    44  41  89 NW6       29.88R
SCOTTSBLUFF    LGT RAIN  51  50  96 NW7       29.82R
RAPID CITY     CLOUDY    50  49  96 N3        29.83R
PIERRE         CLOUDY    56  56 100 NE6       29.76R FOG
WINNER         FOG       58  56  93 E5        29.76S VSB 1/4
SIOUX FALLS    CLOUDY    59  57  93 NW3       29.72S
OMAHA          MOCLDY    62  61  96 S9        29.78R
GRAND ISLAND   CLOUDY    57  56  96 SE7       29.76R FOG
KANSAS CITY    PTCLDY    58  58 100 SW7       29.88R
WICHITA        CLOUDY    59  56  89 NE5       29.87F
HAYS           CLOUDY    55  48  76 S6        29.78R
LIBERAL        CLEAR     52  46  82 W5        29.81R
GOODLAND       CLEAR     47  45  93 W10       29.82R
$$



USA.gov is the U.S. government's official web portal to all federal, state and local government web resources and services.